FW6613 Weather Reports


time (UTC)temp
C
wind
direction
speed
KPH
gust
KPH
rain 1hr
cm
rain 24hr
cm
rain mn
cm
humidity
%
barometer
mb
20260507041115 17 237 0.0 0.0 0.00 0.00 0.00 72 1018.3
20260507040613 17 211 0.0 0.0 0.00 0.00 0.00 72 1018.3
20260507040109 17 231 1.6 1.6 0.00 0.00 0.00 71 1018.5
20260507035605 18 224 0.0 0.0 0.00 0.00 0.00 71 1018.3
20260507035101 18 225 0.0 0.0 0.00 0.00 0.00 71 1018.2
20260507034558 18 219 1.6 1.6 0.00 0.00 0.00 70 1018.2
20260507034056 18 223 4.8 4.8 0.00 0.00 0.00 70 1017.8
20260507033554 18 212 1.6 3.2 0.00 0.00 0.00 69 1017.9
20260507033051 18 221 1.6 3.2 0.00 0.00 0.00 69 1018.0
20260507032548 18 207 0.0 0.0 0.00 0.00 0.00 69 1017.8
20260507032044 18 240 1.6 3.2 0.00 0.00 0.00 68 1018.0
20260507031541 18 252 4.8 8.0 0.00 0.00 0.00 68 1017.5
20260507031038 19 212 0.0 0.0 0.00 0.00 0.00 68 1017.5
20260507030534 19 182 9.7 11.3 0.00 0.00 0.00 67 1017.6
20260507030032 19 211 1.6 8.0 0.00 0.00 0.00 66 1017.4
20260507025529 20 216 6.4 9.7 0.00 0.00 0.00 66 1017.5
20260507025026 20 207 1.6 3.2 0.00 0.00 0.00 65 1017.5
20260507024524 20 213 3.2 3.2 0.00 0.00 0.00 63 1017.2
20260507024020 20 222 0.0 0.0 0.00 0.00 0.00 63 1017.2
20260507023516 20 210 1.6 3.2 0.00 0.00 0.00 63 1017.5
20260507023014 20 230 3.2 4.8 0.00 0.00 0.00 62 1017.1
20260507022510 21 224 0.0 0.0 0.00 0.00 0.00 61 1017.1
20260507022006 21 221 0.0 0.0 0.00 0.00 0.00 61 1017.1
20260507021502 21 212 0.0 0.0 0.00 0.00 0.00 60 1017.2
20260507020959 21 231 0.0 0.0 0.00 0.00 0.00 60 1017.0
20260507020456 21 215 1.6 3.2 0.00 0.00 0.00 59 1016.9
20260507015953 21 225 1.6 1.6 0.00 0.00 0.00 59 1017.1
20260507015452 21 225 0.0 0.0 0.00 0.00 0.00 58 1016.8
20260507014948 22 198 6.4 9.7 0.00 0.00 0.00 58 1016.6
20260507014445 22 217 0.0 0.0 0.00 0.00 0.00 57 1016.5
20260507013941 22 202 0.0 0.0 0.00 0.00 0.00 57 1016.5
20260507013438 22 206 1.6 4.8 0.00 0.00 0.00 57 1016.5
20260507012935 22 217 1.6 1.6 0.00 0.00 0.00 56 1016.3
20260507012432 22 203 1.6 1.6 0.00 0.00 0.00 56 1016.3
20260507011928 23 209 1.6 3.2 0.00 0.00 0.00 55 1016.4
20260507011426 23 186 9.7 14.5 0.00 0.00 0.00 55 1016.3
20260507010925 23 233 8.0 12.9 0.00 0.00 0.00 53 1016.4
20260507010421 23 217 3.2 8.0 0.00 0.00 0.00 53 1016.5
20260507005918 23 206 4.8 4.8 0.00 0.00 0.00 53 1016.1
20260507005415 24 196 0.0 1.6 0.00 0.00 0.00 52 1016.2
20260507004912 24 202 4.8 8.0 0.00 0.00 0.00 52 1016.3
20260507004408 24 218 3.2 4.8 0.00 0.00 0.00 52 1016.2
20260507003906 25 193 1.6 3.2 0.00 0.00 0.00 51 1016.1
20260507003401 25 204 1.6 4.8 0.00 0.00 0.00 50 1016.2
20260507002857 25 202 4.8 12.9 0.00 0.00 0.00 50 1016.1
20260507002353 25 210 0.0 0.0 0.00 0.00 0.00 49 1016.0
20260507001850 25 202 0.0 0.0 0.00 0.00 0.00 48 1016.2
20260507001347 25 195 4.8 8.0 0.00 0.00 0.00 49 1016.1
20260507000843 25 218 4.8 4.8 0.00 0.00 0.00 49 1016.0
20260507000339 26 156 3.2 9.7 0.00 0.00 0.00 48 1016.0
20260506235836 25 214 3.2 8.0 0.00 0.00 0.00 48 1016.2
20260506235332 26 227 3.2 8.0 0.00 0.00 0.00 49 1015.8
20260506234828 26 181 6.4 11.3 0.00 0.00 0.00 48 1015.7
20260506234326 26 201 6.4 9.7 0.00 0.00 0.00 48 1016.0
20260506233824 26 202 0.0 1.6 0.00 0.00 0.00 48 1015.9
20260506233319 26 312 6.4 9.7 0.00 0.00 0.00 49 1015.9
20260506232817 26 218 0.0 0.0 0.00 0.00 0.00 47 1016.0
20260506232312 26 262 4.8 4.8 0.00 0.00 0.00 48 1015.9
20260506231809 26 258 0.0 0.0 0.00 0.00 0.00 46 1016.0
20260506231307 26 205 6.4 11.3 0.00 0.00 0.00 46 1015.8
20260506230804 26 244 11.3 14.5 0.00 0.00 0.00 47 1016.1
20260506230301 27 245 3.2 4.8 0.00 0.00 0.00 46 1016.1
20260506225757 26 216 3.2 4.8 0.00 0.00 0.00 46 1015.9
20260506225254 25 265 0.0 1.6 0.00 0.00 0.00 45 1016.2
20260506224745 26 265 0.0 1.6 0.00 0.00 0.00 44 1016.3
20260506224243 26 194 0.0 1.6 0.00 0.00 0.00 45 1016.3
20260506223738 26 276 4.8 8.0 0.00 0.00 0.00 46 1016.2
20260506223234 26 217 0.0 1.6 0.00 0.00 0.00 44 1016.1
20260506222731 26 211 3.2 4.8 0.00 0.00 0.00 45 1016.5
20260506222226 26 209 4.8 8.0 0.00 0.00 0.00 44 1016.4
20260506221725 26 197 4.8 8.0 0.00 0.00 0.00 45 1016.4
20260506221223 26 215 6.4 8.0 0.00 0.00 0.00 45 1016.5
20260506220720 25 228 4.8 4.8 0.00 0.00 0.00 48 1016.5
20260506220214 26 214 4.8 8.0 0.00 0.00 0.00 45 1016.9
20260506215711 25 258 1.6 3.2 0.00 0.00 0.00 48 1016.8
20260506215207 26 230 4.8 8.0 0.00 0.00 0.00 46 1016.9
20260506214704 26 212 3.2 4.8 0.00 0.00 0.00 45 1017.2
20260506214201 26 218 1.6 1.6 0.00 0.00 0.00 45 1017.1
20260506213659 26 154 0.0 1.6 0.00 0.00 0.00 45 1017.2
20260506213156 26 200 0.0 0.0 0.00 0.00 0.00 44 1017.4
20260506212653 26 174 0.0 0.0 0.00 0.00 0.00 47 1017.4
20260506212148 25 200 0.0 0.0 0.00 0.00 0.00 47 1017.7
20260506211644 24 220 4.8 9.7 0.00 0.00 0.00 46 1017.6
20260506211141 25 175 4.8 8.0 0.00 0.00 0.00 47 1017.4
20260506210638 24 175 0.0 0.0 0.00 0.00 0.00 46 1017.7
20260506210134 25 221 0.0 0.0 0.00 0.00 0.00 46 1017.7
20260506205632 23 164 4.8 8.0 0.00 0.00 0.00 46 1018.0
20260506205126 24 271 0.0 0.0 0.00 0.00 0.00 46 1017.9
20260506204625 23 238 0.0 0.0 0.00 0.00 0.00 47 1017.7
20260506204121 22 212 0.0 0.0 0.00 0.00 0.00 47 1018.0
20260506203619 22 256 0.0 1.6 0.00 0.00 0.00 49 1018.3
20260506203116 23 224 0.0 0.0 0.00 0.00 0.00 47 1018.2
20260506202614 22 5 4.8 8.0 0.00 0.00 0.00 49 1018.2
20260506202110 21 54 3.2 8.0 0.00 0.00 0.00 50 1018.0
20260506201607 23 183 1.6 1.6 0.00 0.00 0.00 48 1018.4
20260506201103 23 207 1.6 3.2 0.00 0.00 0.00 48 1018.5
20260506200600 23 190 0.0 0.0 0.00 0.00 0.00 46 1018.5
20260506200057 23 238 1.6 4.8 0.00 0.00 0.00 50 1018.7
20260506195553 22 245 0.0 0.0 0.00 0.00 0.00 50 1018.7
20260506195049 22 255 0.0 0.0 0.00 0.00 0.00 48 1018.8
20260506194548 21 228 0.0 0.0 0.00 0.00 0.00 50 1018.8
20260506194043 23 202 0.0 0.0 0.00 0.00 0.00 48 1018.9
20260506193541 22 219 0.0 0.0 0.00 0.00 0.00 50 1018.9
20260506193038 21 229 0.0 0.0 0.00 0.00 0.00 51 1018.8
20260506192535 21 289 0.0 0.0 0.00 0.00 0.00 52 1019.1
20260506192031 21 207 0.0 3.2 0.00 0.00 0.00 53 1018.9
20260506191528 21 196 0.0 1.6 0.00 0.00 0.00 53 1019.1
20260506191024 21 220 0.0 0.0 0.00 0.00 0.00 54 1019.2
20260506190521 21 201 0.0 0.0 0.00 0.00 0.00 52 1019.2
20260506190019 20 207 0.0 0.0 0.00 0.00 0.00 55 1019.3
20260506185515 20 222 0.0 0.0 0.00 0.00 0.00 54 1019.3
20260506185012 21 228 0.0 1.6 0.00 0.00 0.00 54 1019.4
20260506184509 20 163 3.2 3.2 0.00 0.00 0.00 55 1019.3
20260506184006 21 137 1.6 1.6 0.00 0.00 0.00 52 1019.7
20260506183502 20 164 1.6 3.2 0.00 0.00 0.00 55 1019.8
20260506182959 20 172 6.4 9.7 0.00 0.00 0.00 55 1019.8
20260506182456 18 287 0.0 1.6 0.00 0.00 0.00 60 1019.7
20260506181953 18 310 0.0 1.6 0.00 0.00 0.00 60 1019.7
20260506181451 20 262 3.2 3.2 0.00 0.00 0.00 59 1019.8
20260506180948 18 202 4.8 4.8 0.00 0.00 0.00 60 1019.7
20260506180444 20 333 3.2 4.8 0.00 0.00 0.00 60 1020.0
20260506175941 20 188 1.6 3.2 0.00 0.00 0.00 55 1019.9
20260506175438 18 319 1.6 3.2 0.00 0.00 0.00 61 1019.9
20260506174934 18 146 4.8 4.8 0.00 0.00 0.00 59 1019.9
20260506174433 20 284 3.2 3.2 0.00 0.00 0.00 59 1019.7
20260506173929 20 174 1.6 3.2 0.00 0.00 0.00 57 1019.7
20260506173426 19 195 0.0 0.0 0.00 0.00 0.00 59 1019.8
20260506172923 19 193 3.2 3.2 0.00 0.00 0.00 60 1019.8
20260506172420 17 233 1.6 4.8 0.00 0.00 0.00 64 1019.9
20260506171917 17 336 8.0 11.3 0.00 0.00 0.00 64 1020.0
20260506171414 18 239 8.0 9.7 0.00 0.00 0.00 60 1019.7
20260506170912 17 196 1.6 3.2 0.00 0.00 0.00 62 1020.0
20260506170407 17 357 4.8 4.8 0.00 0.00 0.00 65 1020.0
20260506165901 17 188 0.0 0.0 0.00 0.00 0.00 63 1020.0
20260506165359 18 241 0.0 0.0 0.00 0.00 0.00 63 1019.9
20260506164855 16 197 1.6 1.6 0.00 0.00 0.00 67 1019.8
20260506164351 17 119 3.2 3.2 0.00 0.00 0.00 65 1019.9
20260506163850 17 204 0.0 0.0 0.00 0.00 0.00 68 1020.0
20260506163343 17 162 0.0 0.0 0.00 0.00 0.00 67 1020.0
20260506162839 18 198 1.6 1.6 0.00 0.00 0.00 65 1019.9
20260506162337 17 209 0.0 0.0 0.00 0.00 0.00 67 1020.1
20260506161829 16 225 0.0 0.0 0.00 0.00 0.00 70 1019.9
20260506161326 17 226 1.6 3.2 0.00 0.00 0.00 66 1019.9
20260506160823 16 243 0.0 1.6 0.00 0.00 0.00 71 1020.1
20260506160320 16 40 3.2 4.8 0.00 0.00 0.00 72 1020.0
20260506155818 16 197 0.0 0.0 0.00 0.00 0.00 70 1020.0
20260506155314 16 201 0.0 0.0 0.00 0.00 0.00 72 1020.1
20260506153427 16 158 4.8 4.8 0.00 0.00 0.00 72 1020.0
20260506152925 15 189 1.6 1.6 0.00 0.00 0.00 73 1019.8
20260506152421 15 176 1.6 1.6 0.00 0.00 0.00 73 1020.1
20260506151920 15 175 3.2 3.2 0.00 0.00 0.00 75 1020.1
20260506151417 15 125 3.2 3.2 0.00 0.00 0.00 76 1020.2
20260506150914 15 181 1.6 3.2 0.00 0.00 0.00 75 1020.3
20260506150410 15 162 1.6 3.2 0.00 0.00 0.00 75 1020.1
20260506145908 15 182 1.6 1.6 0.00 0.00 0.00 75 1020.2
20260506145403 15 149 3.2 3.2 0.00 0.00 0.00 75 1020.2
20260506144901 15 180 1.6 1.6 0.00 0.00 0.00 76 1020.0
20260506144357 14 183 1.6 1.6 0.00 0.00 0.00 78 1020.3
20260506143856 15 193 1.6 3.2 0.00 0.00 0.00 79 1020.1
20260506143352 15 191 0.0 0.0 0.00 0.00 0.00 80 1019.8
20260506142851 15 233 0.0 0.0 0.00 0.00 0.00 81 1020.0
20260506142348 15 235 0.0 0.0 0.00 0.00 0.00 84 1020.1
20260506141847 13 235 0.0 0.0 0.00 0.00 0.00 86 1020.0
20260506141344 13 234 0.0 0.0 0.00 0.00 0.00 89 1019.9
20260506140842 12 235 0.0 0.0 0.00 0.00 0.00 93 1020.0
20260506140339 12 236 0.0 0.0 0.00 0.00 0.00 94 1020.0
20260506135836 11 236 0.0 0.0 0.00 0.00 0.00 95 1019.9
20260506135332 11 237 0.0 0.0 0.00 0.00 0.00 96 1019.9
20260506134828 11 237 0.0 0.0 0.00 0.00 0.00 97 1019.6
20260506134325 10 237 0.0 0.0 0.00 0.00 0.00 97 1019.7
20260506133823 10 237 0.0 0.0 0.00 0.00 0.00 97 1019.8
20260506133319 10 238 0.0 0.0 0.00 0.00 0.00 97 1019.8
20260506132816 9 237 0.0 0.0 0.00 0.00 0.00 97 1019.6
20260506132313 8 236 0.0 0.0 0.00 0.00 0.00 97 1019.7
20260506131811 8 236 0.0 0.0 0.00 0.00 0.00 97 1019.3
20260506131307 8 236 0.0 0.0 0.00 0.00 0.00 97 1019.6
20260506130804 8 236 0.0 0.0 0.00 0.00 0.00 97 1019.2
20260506130300 8 236 0.0 0.0 0.00 0.00 0.00 97 1019.4
20260506125759 8 236 0.0 0.0 0.00 0.00 0.00 97 1019.2
20260506125256 8 236 0.0 0.0 0.00 0.00 0.00 97 1019.3
20260506124755 8 236 0.0 0.0 0.00 0.00 0.00 97 1019.3
20260506124252 8 236 0.0 0.0 0.00 0.00 0.00 97 1019.3
20260506123749 8 236 0.0 0.0 0.00 0.00 0.00 97 1019.1
20260506123248 8 236 0.0 0.0 0.00 0.00 0.00 96 1019.3
20260506122744 8 236 0.0 0.0 0.00 0.00 0.00 96 1019.0
20260506122241 8 236 0.0 0.0 0.00 0.00 0.00 96 1019.0
20260506121739 9 235 0.0 0.0 0.00 0.00 0.00 96 1019.1
20260506121236 9 236 0.0 0.0 0.00 0.00 0.00 96 1019.1
20260506120733 9 236 0.0 0.0 0.00 0.00 0.00 96 1019.2
20260506120231 9 236 0.0 0.0 0.00 0.00 0.00 96 1019.2
20260506115729 9 236 0.0 0.0 0.00 0.00 0.00 96 1018.9
20260506115227 9 236 0.0 0.0 0.00 0.00 0.00 96 1019.0
20260506114724 9 236 0.0 0.0 0.00 0.00 0.00 96 1018.9
20260506114221 10 236 0.0 0.0 0.00 0.00 0.00 95 1019.0
20260506113720 9 236 0.0 0.0 0.00 0.00 0.00 96 1019.0
20260506113217 9 236 0.0 0.0 0.00 0.00 0.00 95 1019.0
20260506112713 9 236 0.0 0.0 0.00 0.00 0.00 95 1018.9
20260506112211 10 236 0.0 0.0 0.00 0.00 0.00 95 1018.8
20260506111708 10 236 0.0 0.0 0.00 0.00 0.00 95 1018.9
20260506111206 9 236 0.0 0.0 0.00 0.00 0.00 95 1018.7
20260506110703 9 236 0.0 0.0 0.00 0.00 0.00 95 1018.8
20260506110201 10 235 0.0 0.0 0.00 0.00 0.00 95 1018.8
20260506105657 10 236 0.0 0.0 0.00 0.00 0.00 95 1018.9
20260506105154 10 235 0.0 0.0 0.00 0.00 0.00 95 1019.0
20260506104652 9 235 0.0 0.0 0.00 0.00 0.00 95 1018.7
20260506104149 9 235 0.0 0.0 0.00 0.00 0.00 94 1018.8
20260506103646 9 235 0.0 0.0 0.00 0.00 0.00 94 1019.0
20260506103143 10 235 0.0 0.0 0.00 0.00 0.00 94 1018.9
20260506102642 10 236 0.0 0.0 0.00 0.00 0.00 94 1018.9
20260506102138 10 236 0.0 0.0 0.00 0.00 0.00 93 1018.7
20260506101635 10 235 0.0 0.0 0.00 0.00 0.00 93 1018.9
20260506101132 10 235 0.0 0.0 0.00 0.00 0.00 93 1018.8
20260506100631 10 235 0.0 0.0 0.00 0.00 0.00 92 1018.7
20260506100128 10 235 0.0 0.0 0.00 0.00 0.00 92 1019.0
20260506095627 10 235 0.0 0.0 0.00 0.00 0.00 92 1018.9
20260506095123 10 236 0.0 0.0 0.00 0.00 0.00 92 1018.8
20260506094620 10 236 0.0 0.0 0.00 0.00 0.00 91 1018.9
20260506094118 10 235 0.0 0.0 0.00 0.00 0.00 91 1018.8
20260506093616 10 235 0.0 0.0 0.00 0.00 0.00 91 1019.0
20260506093113 10 235 0.0 0.0 0.00 0.00 0.00 90 1018.8
20260506092611 10 235 0.0 0.0 0.00 0.00 0.00 90 1018.9
20260506092108 11 235 0.0 0.0 0.00 0.00 0.00 90 1019.1
20260506091606 11 235 0.0 0.0 0.00 0.00 0.00 89 1018.9
20260506091103 11 235 0.0 0.0 0.00 0.00 0.00 89 1019.0
20260506090601 11 236 0.0 0.0 0.00 0.00 0.00 89 1018.7
20260506090057 11 236 0.0 0.0 0.00 0.00 0.00 89 1018.9
20260506085554 11 235 0.0 0.0 0.00 0.00 0.00 88 1018.9
20260506085050 11 235 0.0 0.0 0.00 0.00 0.00 88 1019.0
20260506084547 11 235 0.0 0.0 0.00 0.00 0.00 88 1019.1
20260506084043 11 235 0.0 0.0 0.00 0.00 0.00 88 1018.9
20260506083541 11 235 0.0 0.0 0.00 0.00 0.00 88 1019.2
20260506083038 11 235 0.0 0.0 0.00 0.00 0.00 88 1019.0
20260506082535 11 235 0.0 0.0 0.00 0.00 0.00 88 1019.1
20260506082030 11 235 0.0 0.0 0.00 0.00 0.00 88 1019.2
20260506081529 11 235 0.0 0.0 0.00 0.00 0.00 87 1018.9
20260506081026 11 235 0.0 0.0 0.00 0.00 0.00 87 1019.2
20260506080523 11 235 0.0 0.0 0.00 0.00 0.00 87 1019.1
20260506073507 11 235 0.0 0.0 0.00 0.00 0.00 86 1019.1
20260506073004 11 235 0.0 0.0 0.00 0.00 0.00 86 1019.1
20260506072501 11 235 0.0 0.0 0.00 0.00 0.00 86 1019.3
20260506071959 11 235 0.0 0.0 0.00 0.00 0.00 86 1019.3
20260506071456 11 235 0.0 0.0 0.00 0.00 0.00 86 1019.2
20260506070953 11 236 0.0 0.0 0.00 0.00 0.00 86 1019.1
20260506070450 11 236 0.0 0.0 0.00 0.00 0.00 86 1019.2
20260506062428 12 235 0.0 0.0 0.00 0.86 0.86 83 1018.9
20260506061923 12 235 0.0 0.0 0.00 0.86 0.86 83 1018.6
20260506061420 12 235 0.0 0.0 0.00 0.86 0.86 82 1018.5
20260506060918 12 235 0.0 0.0 0.00 0.86 0.86 82 1018.6
20260506060416 12 235 0.0 0.0 0.00 0.86 0.86 82 1018.5
20260506051348 12 233 0.0 0.0 0.00 0.86 0.86 80 1018.3
20260506050845 12 232 0.0 0.0 0.00 0.86 0.86 79 1018.2
20260506050343 13 232 1.6 1.6 0.00 0.86 0.86 78 1018.1
20260506044833 13 224 1.6 1.6 0.00 0.86 0.86 78 1018.0
20260506044331 13 222 0.0 0.0 0.00 0.86 0.86 77 1017.8
20260506043828 13 222 0.0 0.0 0.00 0.86 0.86 76 1017.9
20260506043325 13 222 0.0 0.0 0.00 0.86 0.86 76 1017.8
20260506042823 13 222 0.0 0.0 0.00 0.86 0.86 75 1017.7
20260506042322 13 220 0.0 0.0 0.00 0.86 0.86 74 1017.5
20260506041821 13 220 0.0 0.0 0.00 0.86 0.86 73 1017.7